Dewpoint
65 65 66 67 68 68 68 68 69 70 70 69 68 67 66 67 66 66 67 68 67 67 68 65 66 67 67 71 73 73 73 76 73 71 68 68 68 67 68 67 67 68 67
64 65 65 66 67 68 69 70 70 70 69 68 68 68 67 66 66 66 67 67 68 67 68 69 66 68 69 73 74 74 72 73 73 69 69 66 67 70 68 68 67 68 67
62 64 65 66 67 68 68 69 70 71 71 70 68 68 68 68 66 65 67 66 69 68 68 69 69 70 73 72 74 75 74 72 76 73 69 66 65 66 68 69 68 69 67
62 63 65 66 66 67 68 69 70 70 70 71 69 69 65 65 66 65 66 66 68 68 68 69 70 73 73 74 75 73 74 75 74 75 72 73 71 65 64 70 67 68 66
60 61 63 65 66 67 67 69 70 71 70 70 70 68 67 67 66 66 67 68 70 69 70 73 74 74 75 74 75 71 71 72 73 71 72 73 71 70 67 63 65 66 66
59 61 63 65 66 68 67 68 70 70 70 70 70 70 69 67 68 67 66 69 71 72 73 74 75 74 73 73 71 73 73 73 73 73 73 71 70 69 68 67 67 65 66
59 60 62 64 65 67 68 68 69 69 70 69 69 69 68 66 66 68 70 71 70 72 72 73 73 74 72 71 71 73 74 74 74 74 72 72 71 71 70 68 66 64 66
58 58 60 64 66 66 67 68 69 69 70 69 68 68 68 69 70 70 71 71 72 71 73 73 74 73 73 73 74 74 73 73 72 72 72 71 70 71 70 70 67 64 65
58 59 59 61 65 66 67 68 69 69 69 69 69 69 68 68 69 70 71 72 73 73 75 75 74 74 74 74 74 71 71 70 70 69 69 68 69 69 69 69 68 67 63
60 60 61 61 64 65 66 67 68 68 69 68 69 70 70 70 70 71 73 74 74 75 74 74 73 74 73 71 70 66 67 66 64 64 66 66 65 65 67 68 67 67 66
59 61 62 62 63 65 66 67 67 67 69 68 70 70 72 72 73 73 73 73 73 73 73 73 72 71 69 68 66 66 65 64 64 65 65 65 65 62 63 64 65 64 66
58 59 61 62 63 65 65 66 67 67 67 69 71 71 73 74 74 72 72 72 72 71 71 71 70 68 66 66 66 64 63 63 63 63 64 63 61 63 63 62 65 64 65
58 59 60 62 63 65 66 66 68 68 69 71 72 73 74 73 72 71 71 70 70 70 69 68 67 66 66 66 66 65 64 63 62 62 62 62 62 62 61 61 59 59 60
59 58 59 62 65 67 69 70 70 71 72 72 73 73 73 73 71 70 67 67 69 69 69 67 66 66 65 65 64 64 64 63 63 63 63 63 62 62 61 59 59 59 55
57 59 59 64 67 69 70 72 72 73 73 73 73 73 72 71 68 67 67 67 67 67 68 67 65 64 62 60 63 63 63 63 63 63 63 63 63 63 62 54 58 57 52
57 59 62 65 67 68 70 71 72 73 73 73 72 72 70 66 66 66 67 66 66 66 66 66 65 64 59 61 62 62 61 61 60 59 60 61 61 62 62 62 62 62 59
57 59 61 64 67 68 71 71 72 73 73 72 71 70 69 66 66 66 66 65 65 65 65 64 63 63 62 61 60 59 57 54 54 55 55 53 53 59 60 58 59 57 58
59 61 61 65 67 68 70 71 71 72 72 71 71 70 69 67 66 66 65 64 64 64 62 62 62 62 59 58 57 56 53 53 54 55 55 56 57 57 58 57 54 54 53
59 60 60 63 68 70 72 71 71 71 71 70 69 69 69 67 65 65 64 63 63 62 61 59 58 56 55 55 54 54 51 52 54 56 57 56 55 53 55 55 53 53 53
55 59 59 63 67 70 70 70 70 70 71 70 68 69 68 67 65 64 64 63 63 61 59 59 57 56 55 54 53 53 48 51 49 54 56 55 55 53 54 55 52 50 50
58 61 63 66 69 70 70 70 70 70 71 70 69 69 67 66 65 64 63 62 61 61 61 61 59 57 56 55 53 53 52 48 49 50 51 50 53 52 52 53 50 48 49
61 63 66 69 70 70 71 70 70 71 70 69 69 67 66 63 63 64 63 62 60 60 59 60 60 57 58 56 54 52 53 51 52 51 51 51 52 52 52 50 49 49 48
63 64 66 68 69 70 71 69 71 70 68 68 67 66 65 63 64 63 61 58 59 56 56 57 57 58 55 55 54 53 53 50 52 52 52 52 51 52 51 52 51 51 44
65 64 66 67 68 69 70 70 69 69 68 67 66 65 64 62 62 60 58 54 53 53 52 55 57 58 56 53 52 52 49 52 52 52 51 51 51 50 49 50 50 47 45
66 67 67 68 69 70 70 68 69 68 67 67 65 64 62 61 61 60 57 53 53 49 50 53 57 58 58 53 50 50 49 50 52 53 50 48 49 49 48 48 48 48 47
68 68 68 68 69 69 69 69 68 69 67 65 63 62 60 59 59 59 56 49 48 47 46 48 52 55 51 47 44 42 42 46 47 49 48 48 48 49 47 47 47 48 46
Lifted_Index
-3 -3 -3 -3 -2 -2 -2 -2 -2 -1 -1 -0 0 1 1 1 1 1 0 0 1 1 1 1 1 1 -0 -2 -3 -4 -4 -5 -5 -4 -3 -3 -2 -3 -3 -2 -3 -3 -3
-3 -3 -3 -3 -3 -2 -2 -2 -2 -1 -1 -0 0 1 1 1 1 1 1 1 1 1 1 1 1 1 -1 -3 -4 -4 -5 -5 -5 -4 -4 -3 -2 -3 -3 -3 -3 -3 -3
-3 -3 -3 -3 -3 -3 -2 -2 -2 -2 -1 -1 -0 0 1 1 1 1 1 1 1 1 1 1 1 -0 -2 -4 -4 -5 -5 -5 -5 -5 -4 -4 -3 -3 -3 -3 -3 -3 -2
-3 -3 -3 -3 -3 -3 -2 -2 -2 -2 -2 -1 -1 -0 0 1 1 1 1 1 1 1 1 0 -1 -2 -3 -4 -4 -4 -4 -5 -5 -5 -4 -4 -4 -4 -3 -3 -3 -2 -2
-2 -3 -3 -3 -4 -3 -3 -2 -2 -2 -2 -1 -1 -1 -1 0 1 1 1 1 1 0 -1 -2 -3 -3 -4 -4 -4 -3 -3 -4 -5 -4 -4 -4 -4 -4 -3 -3 -3 -2 -2
-2 -2 -3 -3 -3 -3 -3 -3 -2 -2 -2 -1 -1 -1 -1 0 1 1 1 0 -1 -1 -2 -3 -3 -3 -3 -3 -3 -3 -3 -4 -4 -4 -4 -4 -4 -4 -3 -3 -3 -2 -2
-2 -2 -2 -3 -3 -3 -3 -3 -3 -2 -2 -1 -1 -1 -0 0 1 0 -0 -1 -2 -2 -2 -3 -3 -3 -2 -2 -2 -3 -3 -4 -4 -4 -4 -3 -3 -3 -3 -3 -3 -3 -3
-2 -2 -2 -2 -3 -3 -3 -3 -4 -3 -2 -1 -1 -0 0 1 0 -1 -1 -1 -2 -2 -3 -3 -3 -3 -2 -2 -2 -3 -3 -3 -3 -3 -2 -2 -2 -2 -3 -3 -3 -3 -3
-2 -2 -2 -2 -2 -3 -3 -3 -4 -4 -3 -2 -1 -1 -0 -0 -0 -1 -2 -2 -3 -3 -3 -3 -3 -3 -3 -3 -2 -2 -1 -1 -1 -1 -0 -0 -1 -1 -1 -2 -2 -2 -2
-2 -2 -2 -2 -2 -3 -3 -3 -4 -4 -4 -3 -2 -2 -2 -2 -2 -2 -3 -3 -3 -3 -3 -3 -2 -2 -2 -1 -0 0 1 2 2 2 2 1 1 1 0 -0 -0 -1 -1
-2 -2 -2 -2 -2 -3 -3 -3 -4 -4 -4 -4 -4 -4 -4 -4 -3 -3 -3 -3 -3 -3 -2 -2 -1 -0 0 1 2 2 3 4 4 4 4 3 3 3 3 2 1 1 1
-1 -1 -2 -2 -2 -3 -3 -4 -4 -4 -4 -4 -4 -5 -5 -5 -4 -3 -3 -2 -2 -2 -1 0 1 2 3 3 3 4 4 5 5 5 5 5 5 5 4 4 3 3 3
-1 -1 -1 -2 -3 -3 -4 -4 -5 -4 -4 -5 -5 -5 -4 -4 -3 -3 -2 -2 -2 -1 1 2 3 4 4 5 5 5 6 6 6 6 6 6 6 6 6 6 6 5 5
-1 -1 -2 -2 -3 -4 -5 -5 -5 -5 -5 -5 -5 -5 -4 -4 -3 -3 -2 -2 -0 1 3 4 5 5 6 6 6 6 7 7 7 7 7 7 7 7 7 8 8 8 8
-1 -1 -2 -3 -4 -4 -5 -5 -6 -6 -6 -5 -5 -4 -3 -3 -3 -2 -2 -1 1 4 5 5 5 6 7 8 8 8 8 8 8 8 7 7 7 8 8 8 9 9 9
-1 -1 -2 -3 -4 -4 -5 -5 -6 -5 -5 -4 -4 -3 -3 -3 -2 -2 -1 1 4 5 5 6 6 7 9 10 9 9 9 9 10 10 9 9 9 9 8 9 9 9 9
-1 -1 -2 -3 -3 -4 -5 -5 -5 -4 -4 -4 -3 -3 -3 -3 -2 -1 1 4 6 6 6 7 7 8 10 11 11 11 11 12 12 12 11 11 10 9 9 9 10 10 10
-1 -1 -1 -2 -3 -4 -5 -4 -4 -3 -3 -3 -3 -3 -3 -3 -2 -1 2 5 7 7 8 8 9 10 11 13 13 13 13 13 13 13 12 11 11 11 10 10 10 11 11
-1 -1 -1 -2 -3 -4 -4 -3 -3 -2 -2 -3 -3 -3 -3 -3 -2 1 4 7 7 8 8 9 10 12 14 15 15 14 14 14 13 13 12 12 12 12 12 11 11 11 11
-0 -0 -1 -2 -3 -3 -3 -2 -2 -2 -2 -3 -3 -3 -4 -3 -1 3 6 7 8 8 9 9 11 12 14 16 16 15 14 14 13 13 12 13 13 13 13 12 12 12 12
-0 -1 -1 -2 -3 -3 -2 -2 -2 -2 -2 -3 -3 -4 -4 -2 2 5 7 8 8 9 9 9 10 11 13 15 16 15 14 14 13 12 12 13 14 14 14 13 13 14 13
-1 -1 -2 -2 -2 -2 -2 -2 -2 -2 -2 -3 -3 -4 -3 0 4 7 8 8 9 9 9 9 9 10 12 14 15 15 15 14 13 12 12 13 14 14 14 15 15 15 14
-2 -2 -2 -2 -2 -2 -2 -2 -1 -1 -2 -2 -3 -3 -1 3 6 7 8 9 10 10 10 9 8 9 10 12 14 15 15 14 13 13 13 14 14 15 15 15 15 15 14
-3 -3 -3 -2 -2 -2 -2 -1 -1 -1 -2 -2 -3 -2 1 5 7 7 8 9 10 11 10 9 8 8 9 11 13 14 14 14 13 13 13 14 14 14 14 14 14 14 14
-3 -3 -3 -3 -2 -2 -1 -1 -1 -1 -2 -3 -3 -1 3 6 7 7 8 9 11 12 12 10 8 8 9 11 13 14 14 13 13 13 13 13 13 13 14 13 13 13 13
-4 -4 -3 -3 -2 -2 -1 -1 -1 -1 -2 -3 -2 0 4 7 7 7 8 9 11 13 12 11 9 8 9 11 13 14 14 13 13 13 13 13 13 13 13 13 13 13 13